Weather Roundup
Issued by NWS Springfield, MO

Home | Current Version | Previous Version | Text Only | Print | Product List | Glossary On
Versions: 1 2 3 4 5 6 7 8 9 10 11 12 13 14 15 16 17 18 19 20 21 22 23 24 25 26 27 28 29 30 31 32 33 34 35 36 37 38 39 40 41 42 43 44 45 46 47 48 49 50
000
NZUS99 KSGF 300807
HRRSGF

HOURLY WEATHER
NATIONAL WEATHER SERVICE SPRINGFIELD MO
300 AM CDT TUE AUG 30 2016

......SGF CWA......

CITY           SKY/WX    TMP DP  RH WIND       PRES   REMARKS
SPRINGFIELD    CLOUDY    73  69  87 N3        30.14S
JOPLIN         CLEAR     72  68  87 CALM      30.13S
WEST PLAINS    CLEAR     72  69  90 E3        30.16F
ROLLA          CLEAR     73  70  90 SE5       30.15S
OSAGE BEACH    CLEAR     72  70  93 CALM      30.14F
BRANSON        PTCLDY    70  70 100 CALM      30.15S

......SURROUNDING SGF CWA......

CITY           SKY/WX    TMP DP  RH WIND       PRES   REMARKS
CHANUTE        CLOUDY    73  72  96 CALM      30.13S
PARSONS        CLEAR     70  69  97 CALM      30.13S
COFFEYVILLE    CLEAR     72  71  97 CALM      30.11F
EMPORIA        CLOUDY    72  71  97 N6        30.14F
GROVE OK       CLOUDY    72  70  94 CALM      30.12S
ROGERS AR      CLOUDY    72  70  93 SE5       30.15F
SILOAM SPRINGS CLOUDY   N/A N/A N/A CALM      30.11F
HARRISON AR    PTCLDY    69  68  96 W3        30.15F
NEAR YELLVILLE MOCLDY    72  68  88 CALM      30.09S

......KANSAS AND MISSOURI......

CITY           SKY/WX    TMP DP  RH WIND       PRES   REMARKS
KANSAS CTY INT CLOUDY    73  69  87 SW6       30.19R THUNDER
DOWNTOWN KC    CLOUDY    75  68  78 S5        30.16S
COLUMBIA       CLEAR     74  73  97 E5        30.14F
SEDALIA        CLEAR     74  71  91 SE3       30.15S FOG
ST JOSEPH      CLOUDY    70  69  97 N8        30.16F
ST LOUIS       CLEAR     80  72  76 CALM      30.14S
SPIRIT OF STL  CLEAR     74  73  97 CALM      30.12F FOG
KIRKSVILLE     CLEAR     70  68  93 N3        30.16F FOG
WICHITA        MOCLDY    74  70  87 CALM      30.14F
TOPEKA         PTCLDY    72  69  90 NE6       30.15F
OLATHE         TSTM      69  68  96 W5        30.17S

......TENNESSEE......

CITY           SKY/WX    TMP DP  RH WIND       PRES   REMARKS
MEMPHIS        CLEAR     82  73  74 E7        30.05S
NASHVILLE      CLEAR     77  71  82 N3        30.10S

......ARKANSAS.......

CITY           SKY/WX    TMP DP  RH WIND       PRES   REMARKS
FAYETTEVILLE   CLEAR     70  70 100 CALM      30.14S
FT SMITH       CLEAR     74  70  87 CALM      30.08F
LITTLE ROCK    CLEAR     80  73  79 N5        30.05F

......OKLAHOMA.......

CITY           SKY/WX    TMP DP  RH WIND       PRES   REMARKS
TULSA          PTCLDY    72  70  93 N3        30.10S
PONCA CITY     CLOUDY    73  69  87 E5        30.11F
MCALESTER      MOCLDY    75  69  81 CALM      30.09F
OKLAHOMA CITY  PTCLDY    74  70  87 CALM      30.11S

......IOWA............

CITY           SKY/WX    TMP DP  RH WIND       PRES   REMARKS
DES MOINES     CLOUDY    73  70  90 E5        30.16S
QUAD CITIES    LGT RAIN  73  70  90 NE5       30.14F

......ILLINOIS........

CITY           SKY/WX    TMP DP  RH WIND       PRES   REMARKS
QUINCY         PTCLDY    74  71  91 CALM      30.13F
CHICAGO        MOCLDY    71  70  96 CALM      30.15F FOG




USA.gov is the U.S. government's official web portal to all federal, state and local government web resources and services.